ARIANE 5 R/B, 43825

Orbit data source: Space-Track

ARIANE 5 R/B, 43825 is space debris in HEO originally from a launch on Tue, 04 Dec 2018 UTC launched from the French Guiana (FRGUI). Debris objects in space refer to the collection of defunct objects orbiting the Earth. Examples of debris include non-operational satellites, rocket bodies, and fragments generated from explosions, collisions, or faulty payload assembly.

Loading next visibility...
Identifier
43825, 2018-100C
Orbit
HEO
Country
Flag of FRFR
Related business
Manufacturer
ArianeGroup
Mission
Spacecraft
Bus & Motor
ESC-A, Unknown motor
Mass
~5,000 kg wet, ~5,000 kg dry
Launch date (UTC)
2018-12-04 (8 years ago)
Launch vehicle
Unknown
Launch site
French Guiana (FRGUI)
Object type
Payload
Rocket body
Debris
Shape & HBR
Cyl + 1 Nozzle, 3.5 m
Radar Cross Section
41.627 m², Large (>1 m²)

Expand to show TLE details & history
Last TLE update: 2 days ago

TLE from 2 days ago
0 ARIANE 5 R/B
1 43825U 18100C   26171.07536834  .00003709  00000-0  65377-3 0  9995
2 43825   4.0865 355.4087 6932312 222.6912  55.6363  2.74059066 68718
Epoch: 2026-06-20T01:48Z
TLE epoch observation values (Epoch: 2026-06-20T01:48:31.824Z)
Latitude
-0°
Longitude
60.13742°
Altitude
16,508.569 km
Speed
4.044 km/s
True Right ascension
23h 42m 15s
True Declination
0° 00' 00"
Sunlit
Object was in daylight at epoch
Visualization orbit readout
Latitude
Unknown
Longitude
Unknown
Altitude
Unknown
Speed
Unknown
Apparent Right ascension
Unknown
Apparent Declination
Unknown
Sunlit
N/A
Visualization observer readout
Local Sidereal Time
21:26:54
Azimuth
Unknown
Elevation
Unknown
Doppler factor
Unknown
Orbital elements
Apogee altitude
30,153.117 km
Perigee altitude
240.362 km
Semi-major axis
21,574.876 km
Eccentricity
0.69323
Inclination
4.0865°
RAAN
355.4087°
Arg. of periapsis
222.6912°
True anomaly
137.51598°
Mean anomaly
55.6363°
Eccentric anomaly
95.19252°
Mean motion
0.68489 °/min
Orbital period
525.63 mins
BSTAR
0.00065377
Loading maneuver chart data...
Computing Atmospheric mass density...
Loading historical data...
Loading historical data...
Loading historical data...
Loading historical data...
Loading historical data...
Loading historical data...
Loading historical data...
Other satellites on launch #100 in the year 2018 (2018-12-04 UTC)

Documentation

Showing up to 5 results
|